CAPE
0 0 0 0 0 0 0 0 0 0 0 5 136 95 34 14 36 85 353 698 912 860 665 504 326 262 137 22 0 0 0 0 0 0 0 0 0 0 0 0 3 0 0 0
0 0 0 0 0 0 0 0 0 0 0 0 143 102 153 130 39 63 171 551 974 967 752 564 413 311 254 20 0 0 0 0 0 0 0 0 0 0 0 0 0 0 0 0
0 0 0 0 0 0 0 0 0 0 0 0 25 74 49 5 11 53 77 442 892 1022 890 666 465 440 289 52 0 0 0 0 0 0 0 0 0 0 0 0 0 0 0 0
0 0 0 0 0 0 0 0 0 0 0 1 0 1 40 29 15 36 89 706 906 1136 1075 765 561 564 328 142 0 0 0 0 0 0 0 0 0 0 0 0 0 0 0 0
0 0 0 0 0 0 0 0 0 0 0 4 0 1 0 32 50 16 87 188 824 1039 1051 881 675 628 461 278 50 0 0 0 0 0 0 0 0 0 0 0 0 0 0 0
0 0 0 0 2 0 0 3 0 2 2 15 0 13 0 5 37 26 149 57 191 940 1134 1097 781 713 561 450 267 0 0 0 0 0 0 0 0 0 0 0 0 0 0 0
0 0 0 0 0 22 31 58 43 67 18 0 0 23 0 0 0 43 63 168 5 470 1091 1111 836 764 723 648 427 177 0 0 0 0 0 0 0 0 0 0 0 0 0 0
0 0 0 0 0 0 40 114 79 1 38 1 66 49 0 18 0 4 150 79 0 483 1054 1108 947 727 748 848 662 435 187 0 0 0 0 0 0 0 0 0 0 0 0 0
8 0 0 0 2 15 6 117 0 181 170 192 77 13 31 48 12 4 56 74 101 762 1035 1067 973 739 783 940 914 797 507 297 16 0 0 0 0 0 0 0 0 0 0 0
0 16 0 0 0 4 76 8 130 157 50 103 14 101 28 12 0 52 153 70 0 354 910 974 837 793 848 933 972 1028 825 641 446 12 0 0 0 0 0 0 0 0 0 0
1 4 0 0 12 2 8 121 75 119 208 123 49 22 53 99 27 2 22 149 38 118 797 880 850 970 905 950 999 1069 930 764 653 430 28 0 0 0 0 0 0 0 0 0
0 10 26 0 17 10 16 48 116 131 32 150 166 1 6 67 125 32 0 113 151 495 788 932 849 1086 1013 984 945 997 905 760 639 633 371 48 16 0 0 0 0 0 0 0
21 106 69 19 20 32 73 28 209 98 97 169 136 0 49 0 87 92 22 66 77 633 961 912 796 1106 1136 1110 998 946 858 782 677 550 589 337 121 100 6 0 0 0 0 0
28 11 130 207 3 4 129 61 39 212 333 46 29 10 24 0 6 9 0 75 243 724 917 938 806 1139 1125 1034 973 923 898 817 665 447 418 392 274 189 63 2 0 0 0 0
1 70 167 227 55 0 0 119 85 175 110 202 0 66 30 0 41 111 92 182 374 391 593 974 1039 1270 1162 978 860 835 918 853 696 481 316 322 298 227 149 35 0 0 0 0
3 185 306 369 193 136 9 23 55 105 145 18 0 93 13 21 53 259 56 38 275 257 514 739 854 1010 1096 975 883 826 810 822 761 608 433 365 335 248 171 111 40 0 0 6
18 139 189 231 272 152 127 52 115 45 153 11 1 15 24 36 44 149 3 42 228 158 269 283 428 689 873 984 910 780 639 703 712 699 646 506 450 331 223 174 141 47 10 11
74 53 33 91 217 311 155 82 32 92 41 24 44 4 8 43 57 147 62 0 0 113 107 136 155 239 374 634 934 869 672 607 628 621 554 491 453 386 363 293 184 106 48 28
134 66 48 138 209 166 146 51 39 32 59 7 45 34 34 24 90 99 41 2 0 0 148 89 192 243 215 214 264 506 767 670 645 653 590 512 429 362 339 277 171 35 11 1
151 80 37 90 138 215 138 31 3 108 112 40 20 52 57 21 54 1 105 245 54 3 11 190 290 330 309 240 161 198 492 686 703 678 609 561 483 382 330 207 61 0 0 0
125 71 35 60 48 3 8 145 118 192 97 29 47 33 74 116 45 436 414 272 166 91 187 201 270 335 356 393 395 415 510 555 553 571 596 526 339 171 54 0 0 0 0 0
105 61 79 11 32 22 304 475 232 157 451 207 227 250 181 361 572 492 291 165 121 188 179 260 374 405 481 472 458 450 445 393 377 356 330 263 203 46 2 0 0 0 0 0
94 123 123 178 113 551 617 307 585 611 726 734 615 528 193 579 432 220 104 168 203 273 342 226 127 157 241 205 108 50 41 73 73 53 41 42 37 1 1 0 0 0 0 0
77 373 115 30 168 47 469 450 433 474 647 720 767 821 597 433 226 173 142 193 288 239 16 0 0 0 0 0 0 0 0 0 0 0 0 0 0 0 0 1 0 0 0 0
133 303 102 0 0 0 126 49 311 304 646 392 496 344 237 213 135 86 28 14 3 0 0 0 0 0 0 0 0 0 0 0 0 0 0 0 0 0 0 0 1 0 0 0
63 128 33 71 5 0 51 87 9 136 87 61 0 0 0 0 0 0 0 0 0 0 0 0 0 0 0 0 0 0 0 0 0 0 0 0 0 0 0 0 0 0 0 0
CIN
0 0 0 0 0 0 0 0 0 0 0 -28 -1 -7 -38 -45 -6 -4 -17 -10 -46 -55 -57 -72 -96 -87 -91 -246 0 0 0 0 0 0 0 0 0 0 0 0 -47 0 0 0
0 0 0 0 0 0 0 0 0 0 0 -2 -4 -5 -12 -8 -52 -21 -20 -13 -35 -74 -61 -69 -107 -104 -89 -259 0 0 0 0 0 0 0 0 0 0 0 0 0 0 0 0
0 0 0 0 0 0 0 0 0 0 0 0 -14 -1 -14 -34 -13 -19 -28 -96 -1 -72 -97 -86 -132 -109 -109 -240 0 0 0 0 0 0 0 0 0 0 0 0 0 0 0 0
0 0 0 0 0 0 0 0 0 -1 0 0 -3 -38 0 -5 -26 -4 -12 -19 -12 -49 -88 -74 -125 -113 -145 -226 0 0 0 0 0 0 0 0 0 0 0 0 0 0 0 0
0 0 0 0 0 0 0 0 0 0 -1 -19 0 -1 0 -22 -9 -1 -7 -15 -25 -63 -110 -110 -148 -143 -136 -184 -296 0 0 0 0 0 0 0 0 0 0 0 0 0 0 0
0 0 0 0 0 -1 -1 0 0 -17 -12 -1 0 -8 0 -4 -14 -2 -16 -109 -57 -24 -47 -47 -98 -105 -130 -142 -199 0 0 0 0 0 0 0 0 0 0 0 0 0 0 0
0 0 0 0 0 -1 -1 -3 -1 0 0 0 0 -3 0 0 0 -7 -33 -95 -129 -11 -37 -60 -88 -112 -116 -118 -175 -255 0 0 0 0 0 0 0 0 0 0 0 0 0 0
0 0 0 0 0 0 -1 0 0 0 0 -6 0 -3 0 -28 0 -4 -11 -40 0 -1 -42 -58 -81 -119 -128 -118 -143 -182 -258 0 0 0 0 0 0 0 0 0 0 0 0 0
0 0 0 0 0 0 -1 -1 0 -1 0 -2 -4 -11 -5 -1 -1 -9 -19 -26 -50 -15 -50 -47 -69 -119 -117 -115 -137 -149 -167 -188 -97 0 0 0 0 0 0 0 0 0 0 0
0 -1 0 0 0 -3 -1 -3 -3 -5 -3 0 -3 0 -7 -12 -12 -1 -5 -9 0 -19 -40 -52 -59 -96 -92 -117 -135 -126 -127 -128 -127 -147 0 0 0 0 0 0 0 0 0 0
-1 -4 0 0 -1 -4 -2 -5 -4 -7 -1 0 0 -1 -44 -5 -41 -31 -190 -17 -45 -51 -30 -45 -56 -70 -89 -94 -123 -143 -135 -127 -110 -153 -363 0 0 0 0 0 0 0 0 0
0 -15 -1 0 -1 -3 -7 -2 -6 -11 -13 0 0 0 -46 -29 -126 -104 0 -15 -22 -27 -36 -28 -39 -45 -66 -84 -108 -163 -178 -172 -158 -127 -192 -373 -395 0 0 0 0 0 0 0
-100 -23 -6 -2 0 -1 -1 -9 -2 -4 -19 -2 -1 0 -9 -19 -67 -117 -87 -5 -14 -30 -27 -29 -30 -22 -49 -74 -107 -160 -202 -209 -189 -174 -171 -232 -318 -323 -436 0 0 0 0 0
-268 -148 -40 0 -13 -9 -7 -4 -5 -1 -2 -11 -5 0 -2 0 -35 -107 0 -38 -23 -27 -20 -20 -24 -32 -58 -80 -104 -137 -198 -218 -215 -220 -237 -262 -293 -297 -341 -268 0 0 0 0
-58 -93 -26 -39 -22 0 0 0 -2 0 0 0 0 0 -1 0 -34 -9 -6 -15 -20 -18 -7 -9 -21 -43 -72 -92 -127 -127 -161 -199 -210 -223 -261 -299 -292 -286 -283 -336 -25 0 0 0
-247 -9 -2 -1 -40 -1 -43 -8 -3 -1 0 -4 0 0 -4 -21 -40 -23 -69 -8 -14 -27 -10 -20 -16 -31 -45 -84 -121 -135 -144 -179 -187 -200 -224 -237 -281 -290 -300 -302 -323 0 -3 -311
0 -13 -2 0 -8 -5 0 -30 0 -17 0 -13 -4 0 -3 -12 -41 -13 -30 -42 -20 -38 -42 -28 -18 -29 -49 -78 -120 -157 -172 -170 -175 -174 -164 -168 -212 -269 -280 -269 -264 -318 -331 -280
-1 0 0 -3 -3 0 -1 -34 -1 -3 -7 0 0 -3 -1 -5 -21 -39 -63 0 0 -9 -21 -56 -104 -130 -122 -121 -120 -169 -183 -170 -180 -164 -160 -150 -149 -196 -213 -211 -226 -244 -260 -252
0 -2 0 -7 0 -7 -4 -6 -18 -18 0 -8 0 -3 -4 -1 -6 -21 -73 -64 0 0 -122 -169 -199 -210 -220 -207 -221 -160 -126 -156 -158 -151 -142 -130 -129 -140 -153 -173 -210 -263 -260 -119
-3 -1 0 -18 0 0 -13 -1 -5 -2 0 -5 -6 -4 0 -7 -10 -2 -17 -29 -58 -39 -83 -192 -250 -272 -261 -274 -273 -233 -158 -132 -139 -127 -124 -104 -114 -131 -118 -152 -264 0 0 0
-3 -11 0 0 0 -13 -24 -3 -1 -3 -3 -9 -11 -11 -16 -8 -10 -31 -82 -98 -124 -146 -202 -266 -302 -251 -250 -236 -225 -185 -171 -161 -150 -122 -103 -100 -139 -181 -223 0 0 0 0 0
-4 -6 -17 0 0 0 -5 -8 -5 -19 -8 -7 -18 -32 -43 -28 -51 -119 -135 -169 -188 -220 -256 -232 -200 -187 -162 -147 -140 -147 -180 -223 -214 -165 -130 -134 -141 -194 -49 0 0 0 0 0
-1 -9 -16 -2 -2 -23 -27 -96 -95 -77 -30 -7 -13 -16 -30 -80 -107 -164 -194 -211 -228 -241 -175 -169 -173 -168 -128 -147 -214 -307 -324 -307 -258 -232 -213 -194 -178 -17 -3 0 0 0 0 0
-1 -21 -11 -1 -28 -141 -34 -92 -14 -32 -34 -17 -28 -41 -92 -144 -158 -198 -199 -197 -163 -117 -164 0 0 0 0 0 0 0 0 0 0 0 0 0 0 0 0 -2 0 0 0 0
-40 -25 -11 0 0 -1 -56 -123 -29 -9 -55 -84 -94 -149 -197 -219 -229 -254 -262 -125 -118 0 0 0 0 0 0 0 0 0 0 0 0 0 0 0 0 0 0 -3 -3 0 0 0
-12 -3 -59 -6 -49 -29 -40 -42 -163 -59 -44 -137 0 0 0 0 0 0 0 0 0 0 0 0 0 0 0 0 0 0 0 0 0 0 0 0 0 0 0 0 -1 0 0 0
Wind_Speed
13 13 19 22 22 24 21 23 24 22 21 21 15 15 16 28 8 11 17 18 17 18 18 19 17 17 17 19 18 16 15 15 10 10 9 7 8 5 4 5 8 8 5 6
14 21 19 16 19 24 25 27 25 24 23 15 18 20 22 19 21 21 16 20 19 19 19 19 17 17 16 20 19 17 16 17 12 10 8 7 8 5 4 4 8 8 6 7
19 16 17 21 22 23 22 21 21 26 24 16 14 23 21 16 12 14 19 22 20 20 20 21 20 18 17 20 20 18 17 18 15 12 8 7 7 7 6 5 7 8 7 7
22 21 22 23 22 20 21 23 24 20 21 16 16 18 20 15 18 18 15 21 24 21 19 20 21 20 19 19 19 19 17 18 16 13 11 10 10 8 7 6 6 8 7 7
24 22 23 24 24 22 21 18 19 20 19 23 27 15 13 16 20 21 17 16 21 23 24 25 24 22 20 20 19 18 18 18 17 13 12 10 9 7 7 6 8 8 7 7
27 23 24 25 23 24 21 21 19 18 15 18 23 20 19 17 24 11 14 13 17 22 23 21 21 21 20 18 18 18 19 18 17 16 12 13 11 9 8 8 7 7 8 7
26 25 25 24 24 22 21 18 11 15 16 21 17 20 21 22 22 7 11 13 13 21 24 23 24 22 21 21 21 19 21 20 19 18 16 11 14 10 10 11 9 10 8 7
19 19 25 24 24 23 18 16 13 27 16 19 19 22 26 24 25 8 17 16 19 18 22 24 24 22 22 22 22 21 22 21 21 19 18 13 14 10 8 12 9 9 9 9
19 27 25 28 23 26 21 21 21 19 20 16 15 21 25 21 20 18 18 16 15 24 24 25 23 21 21 21 22 22 21 20 20 20 17 16 11 13 13 8 10 9 8 9
26 24 24 24 25 25 28 19 17 15 22 23 21 23 15 18 21 17 14 18 13 15 22 22 20 21 20 20 20 19 19 20 17 19 17 15 16 14 11 12 10 11 10 9
22 22 26 25 24 25 19 21 15 16 16 18 19 20 18 18 12 18 29 10 14 15 19 19 19 20 18 18 19 18 18 18 18 17 18 17 16 16 14 11 10 12 9 11
26 24 19 26 25 26 27 23 25 14 24 14 17 23 15 16 12 20 18 20 14 17 19 19 18 19 18 18 18 19 18 17 16 16 17 18 16 16 16 15 12 11 12 10
22 16 21 24 23 25 27 27 22 23 19 23 17 18 15 21 20 22 12 15 14 21 22 19 19 19 18 17 17 18 18 17 15 16 16 16 17 17 17 15 13 13 13 13
21 24 27 19 22 26 28 29 27 23 16 20 23 20 18 19 19 6 8 27 10 19 21 19 17 18 17 16 16 17 17 16 16 15 16 17 18 17 15 14 15 13 12 14
23 29 28 28 32 31 37 34 30 27 26 23 22 20 20 21 17 14 10 13 11 14 15 17 17 16 16 15 14 14 15 16 16 15 16 16 14 14 13 14 14 14 12 14
25 28 20 30 31 32 36 40 33 29 26 25 28 22 21 22 17 11 14 11 14 15 16 18 17 16 16 17 16 14 13 15 15 14 14 13 14 14 14 13 13 13 13 12
19 4 13 24 30 33 36 35 31 29 23 24 26 22 20 23 22 14 12 12 14 17 18 17 19 18 17 16 15 14 12 12 13 13 12 12 14 15 13 13 13 14 13 11
25 17 13 9 24 40 20 31 28 25 27 27 25 21 22 23 23 13 14 18 22 16 18 14 10 7 5 8 13 12 13 11 11 11 11 11 11 13 13 12 12 10 10 11
23 15 6 8 20 22 30 29 28 29 27 27 21 22 21 19 21 20 19 13 9 29 16 13 10 8 6 5 6 10 14 12 11 10 9 10 9 9 10 11 8 6 6 6
25 23 14 10 10 28 24 25 28 26 25 21 23 17 18 20 14 13 12 18 17 16 8 12 11 7 6 6 6 9 9 11 10 9 7 6 6 6 6 6 7 5 5 5
17 20 20 18 11 12 21 28 28 35 15 21 19 21 13 15 14 9 12 14 16 14 14 12 11 9 7 5 6 8 8 8 8 7 5 5 6 6 6 6 4 6 5 5
21 17 15 12 10 19 20 15 32 17 15 15 12 8 11 7 9 19 16 16 16 15 14 14 11 9 8 8 8 11 11 10 9 7 6 6 5 4 4 7 4 5 5 5
24 14 12 13 15 18 10 9 11 12 10 10 7 7 16 17 20 19 17 16 15 16 13 12 11 10 8 10 11 12 11 11 9 8 7 6 5 5 4 8 6 4 4 4
21 15 9 10 5 17 12 12 6 6 1 1 1 6 20 23 21 20 17 16 15 15 14 14 13 11 11 12 12 10 10 9 9 9 7 6 5 5 4 2 6 5 4 4
12 13 12 5 16 13 16 9 11 8 18 16 15 17 17 20 19 18 17 15 15 15 14 13 12 12 12 12 12 11 9 8 7 6 6 4 5 4 0 1 4 5 7 7
11 7 7 6 13 7 6 11 13 11 9 16 16 18 17 14 14 16 15 14 14 13 12 11 11 11 11 12 12 11 9 8 6 4 5 4 3 2 2 1 3 6 7 11
Wind_Direction
239 231 224 227 229 250 248 257 253 245 232 246 252 207 227 274 224 202 171 166 171 175 180 166 179 163 165 150 155 168 163 164 178 167 183 178 165 207 164 168 150 157 185 166
229 231 248 256 251 248 249 259 260 271 271 240 202 247 235 224 186 203 209 161 174 174 175 166 173 170 168 157 160 170 171 168 184 171 191 177 160 202 170 176 143 155 185 168
220 238 220 246 256 246 262 268 263 270 282 290 259 228 250 250 244 229 176 157 198 185 176 168 172 178 167 165 165 174 177 172 185 177 191 175 170 181 175 183 153 164 174 172
245 230 242 220 238 260 263 246 266 292 299 286 243 265 247 249 252 239 188 168 172 176 177 170 174 180 180 170 166 174 180 175 187 191 187 187 180 183 178 179 160 166 177 180
253 238 239 242 236 214 251 272 287 293 246 273 271 273 262 265 259 241 205 173 171 175 180 178 178 181 179 168 170 175 180 177 184 198 187 183 187 189 165 179 165 164 178 182
263 252 256 245 241 243 248 232 236 253 261 259 254 262 264 255 256 234 156 169 182 178 177 183 176 177 179 171 171 176 181 182 183 195 206 185 189 181 175 176 168 176 176 184
260 258 258 259 267 250 235 237 242 241 230 247 232 255 259 260 258 206 223 195 203 207 172 178 178 180 179 179 176 177 182 187 184 187 198 197 183 206 186 176 176 174 178 187
270 267 245 242 250 255 237 242 224 241 242 250 237 226 251 244 252 234 161 215 188 176 174 177 181 182 181 180 178 181 185 190 184 183 193 206 187 197 213 178 178 182 189 182
266 259 263 276 251 233 241 242 243 254 255 270 262 285 242 259 248 235 173 192 200 169 172 177 180 183 181 180 182 184 187 193 187 185 187 197 200 196 203 204 179 181 183 186
281 285 278 265 273 271 223 225 244 241 242 246 251 252 252 216 269 246 227 181 175 167 168 176 181 179 182 181 181 183 190 193 193 184 186 190 203 199 199 206 187 181 186 189
280 283 281 279 262 261 269 216 219 253 230 241 253 249 258 265 184 315 296 186 180 176 167 172 182 177 180 177 177 182 188 193 196 185 184 188 192 202 206 200 200 193 181 189
292 282 276 278 276 265 258 261 209 222 245 240 244 252 258 285 169 193 233 256 187 170 166 174 183 171 176 176 176 181 186 197 198 193 184 189 192 195 201 209 200 186 195 186
296 290 280 280 275 259 252 254 232 216 231 251 232 255 223 259 277 193 243 217 191 173 169 174 177 170 174 177 179 178 185 194 202 191 187 188 194 197 201 200 207 196 192 195
292 277 270 265 270 283 277 246 248 221 224 238 245 259 231 246 248 169 212 258 188 166 169 174 170 165 172 181 181 180 184 190 198 193 194 193 196 200 199 198 201 202 195 196
273 272 269 272 265 261 262 254 242 234 222 237 239 239 240 257 241 213 232 182 155 156 169 167 165 162 169 176 182 190 180 186 192 200 195 194 193 197 201 199 199 204 205 197
254 267 298 268 261 262 254 265 241 243 214 235 241 235 243 246 261 198 205 213 176 171 180 166 162 168 176 180 184 185 183 183 188 199 201 188 184 194 201 200 200 203 209 199
292 278 275 259 251 247 242 249 241 238 231 228 237 238 222 248 255 251 189 201 195 180 175 171 173 175 180 177 175 179 181 173 186 193 197 191 184 190 198 203 203 205 208 205
259 250 260 273 259 241 235 246 249 249 240 226 230 229 244 222 247 232 201 208 274 192 166 138 123 122 142 158 166 167 175 180 181 190 194 198 185 187 190 196 208 206 203 208
233 236 250 248 245 250 243 233 239 251 243 237 244 218 228 238 227 240 187 188 210 272 128 125 120 129 149 188 172 171 171 174 178 188 192 192 189 184 185 194 192 182 175 180
220 208 224 264 277 239 235 231 236 245 245 238 241 240 219 229 231 234 205 130 126 132 123 120 115 117 141 176 182 170 174 163 170 173 187 182 166 175 185 164 156 141 140 150
220 198 216 237 252 276 266 242 229 234 234 230 230 234 227 216 223 167 129 119 123 120 124 126 133 133 144 176 180 152 130 132 135 141 140 119 104 99 96 108 120 133 139 150
246 203 217 236 243 251 235 262 232 253 224 221 223 243 234 213 109 128 126 124 129 130 130 136 123 133 156 157 134 123 105 94 94 106 118 118 122 139 132 115 113 124 140 156
243 196 206 204 207 251 38 335 351 321 77 319 253 247 222 135 126 130 131 134 130 126 131 127 123 116 114 98 100 103 106 111 114 122 122 119 116 105 106 126 124 119 134 141
248 175 174 270 296 347 336 336 330 309 154 297 55 90 130 127 129 125 126 132 135 127 118 118 115 102 81 84 87 82 89 116 126 120 113 105 114 124 132 133 150 152 173 170
295 176 195 202 280 318 311 330 349 29 66 67 75 81 98 112 118 123 122 116 108 110 117 116 117 116 107 97 85 75 61 73 86 85 105 106 123 144 127 225 175 174 187 186
263 249 184 219 188 194 261 301 343 61 94 90 84 87 88 91 99 100 96 97 98 95 99 104 104 106 106 103 92 77 67 63 49 53 57 63 44 23 345 279 215 213 171 155